Weather History for KFNB - April, 2014

Change the Weather History Date:

Wednesday, April 9, 2014

  Actual Average Record
Temperature  
Mean Temperature 54 °F -  
Max Temperature 81 °F 62 °F 87 °F (2011)
Min Temperature 28 °F 36 °F 19 °F (1982)
Degree Days  
Heating Degree Days 10    
Growing Degree Days 4 (Base 50)    
Moisture  
Dew Point 29 °F    
Average Humidity 40    
Maximum Humidity 78    
Minimum Humidity 18    
Precipitation  
Precipitation 0.00 in - - ()
Sea Level Pressure  
Sea Level Pressure 29.90 in    
Wind  
Wind Speed 9 mph (South)    
Max Wind Speed 26 mph    
Max Gust Speed 37 mph    
Visibility 10 miles    
Events      
Averages and records for this station are not official NWS values.
T = Trace of Precipitation, MM = Missing Value Source: NWS Daily Summary

Daily Weather History Graph

Daily Weather History Graph

Search for Another Location

Airport or City:

Trip Planner

Search our weather history database for the weather conditions in past years. The results will help you decide how hot, cold, wet, or windy it might be!

Date:

Astronomy

Apr. 09, 2014 Rise Set
Actual Time 6:53 AM CDT 7:54 PM CDT
Civil Twilight 6:25 AM CDT 8:22 PM CDT
Nautical Twilight 5:52 AM CDT 8:55 PM CDT
Astronomical Twilight 5:18 AM CDT 9:30 PM CDT
Moon 2:43 PM CDT (4/9) 3:43 AM CDT (4/9)
Length of Visible Light 13h 56m
Length of Day
13h 01m
Waxing Gibbous, 72% of the Moon is Illuminated
Apr 9
Waxing Gibbous
Apr 15
Full
Apr 22
Last Quarter
Apr 29
New
May 6
First Quarter

Hourly Weather History & Observations

Time (CDT) Temp. Windchill Dew Point Humidity Pressure Visibility Wind Dir Wind Speed Gust Speed Precip Events Conditions
12:53 AM 35.1 °F 32.2 °F 21.9 °F 59% 30.09 in 10.0 mi ESE 3.5 mph - N/A   Clear
1:53 AM 35.1 °F - 21.9 °F 59% 30.08 in 10.0 mi Calm Calm - N/A   Clear
2:53 AM 30.9 °F 27.5 °F 21.0 °F 67% 30.08 in 10.0 mi SSE 3.5 mph - N/A   Clear
3:53 AM 30.9 °F - 21.9 °F 69% 30.06 in 10.0 mi Calm Calm - N/A   Clear
4:53 AM 30.9 °F - 21.9 °F 69% 30.08 in 10.0 mi Calm Calm - N/A   Clear
5:53 AM 28.0 °F 21.7 °F 21.9 °F 78% 30.06 in 10.0 mi ESE 5.8 mph - N/A   Clear
6:53 AM 28.9 °F - 21.9 °F 75% 30.07 in 10.0 mi Calm Calm - N/A   Clear
7:53 AM 35.1 °F 30.1 °F 26.1 °F 70% 30.06 in 6.0 mi South 5.8 mph - N/A   Haze
8:53 AM 48.9 °F - 26.1 °F 41% 30.04 in 10.0 mi SSW 12.7 mph - N/A   Clear
9:53 AM 57.0 °F - 25.0 °F 29% 30.01 in 10.0 mi South 12.7 mph - N/A   Clear
10:53 AM 64.0 °F - 25.0 °F 23% 29.99 in 10.0 mi South 18.4 mph 26.5 mph N/A   Clear
11:53 AM 68.0 °F - 27.0 °F 21% 29.95 in 10.0 mi SSW 21.9 mph 28.8 mph N/A   Clear
12:53 PM 72.0 °F - 28.0 °F 20% 29.90 in 10.0 mi SSW 26.5 mph 34.5 mph N/A   Clear
1:53 PM 73.9 °F - 30.0 °F 20% 29.86 in 10.0 mi South 23.0 mph 33.4 mph N/A   Clear
2:53 PM 77.0 °F - 30.9 °F 19% 29.83 in 10.0 mi SSW 26.5 mph 36.8 mph N/A   Clear
3:53 PM 80.1 °F - 33.1 °F 18% 29.78 in 10.0 mi SW 20.7 mph 32.2 mph N/A   Clear
4:53 PM 80.1 °F - 34.0 °F 19% 29.75 in 10.0 mi SSW 23.0 mph 31.1 mph N/A   Clear
5:53 PM 81.0 °F - 36.0 °F 20% 29.72 in 10.0 mi SSW 18.4 mph 25.3 mph N/A   Clear
6:53 PM 79.0 °F - 36.0 °F 21% 29.70 in 10.0 mi South 12.7 mph - N/A   Clear
7:53 PM 73.9 °F - 37.0 °F 26% 29.69 in 10.0 mi South 10.4 mph - N/A   Clear
8:53 PM 69.1 °F - 39.0 °F 33% 29.68 in 10.0 mi South 10.4 mph - N/A   Clear
9:53 PM 68.0 °F - 37.9 °F 33% 29.68 in 10.0 mi South 11.5 mph - N/A   Clear
10:53 PM 64.0 °F - 39.0 °F 40% 29.67 in 10.0 mi South 12.7 mph - N/A   Clear
11:53 PM 64.0 °F - 39.0 °F 40% 29.66 in 8.0 mi South 12.7 mph - N/A   Clear